    Observer details:
    157 Frasso Sabino.  Observers R. Haver, R. Gorelli.  Measurer R. Haver.
        0.37-m f/6.70 Cassegrain + CMOS.
    247 Roving Observer.  Observer H. Nishimura.  f/3.0 + Canon EOS 6D.
    950 La Palma.  Observer M. Masek.  0.25-m f/6.8 reflector + CCD.
    C40 Kuban State University Astrophysical Observatory.  Observers A. Ivanov, A.
        Barcov, V. Ivanov, V. Lysenko, N. Yakovenko, N. Ivanova, N. Gorbunov, G.
        Kurbatov, P. Shchukin, V. Roshchupko.  Measurer A. Ivanov.  0.51-m f/8
        reflector + CCD.
    C53 NEOSSat.  Observer C. Smith-Perez.  Measurers D. D. Balam, D. W. E. Green,
        C. E. Spratt.  0.15-m Maksutov Reflector + CCD.
    D95 Kurihara.  Observer T. Takahashi.  0.25-m f/4.2 reflector + CCD.
    G00 AZM Martinsberg, Oed.  Observers M. Jaeger, E. Prosperi, S. Prosperi.
        Measurer M. Jaeger.  0.4-m f/3.2 reflector + CCD.
    G23 Vulpecula Observatory, Budapest.  Observer Z. Banfalvy.  0.15-m f/5.32
        refractor + CCD.
    G40 Slooh.com Canary Islands Observatory.  Observer N. Paul.  0.43-m f/6.8
        Corrected Dall-Kirkham + CCD.
    J01 Observatorio Cielo Profundo, Leon.  Observer J. Gonzalez.  0.20-m f/6
        Ritchey-Chretien + CCD.
    L01 Visnjan Observatory, Tican.  Observers K. Korlevic, I. Forkapa, E.
        Pettarin.  Measurer E. Pettarin.  1.0-m f/2.9 reflector + CCD.
    L06 Sormano 2 Observatory, Bellagio Via Lattea.  Observer G. Ventre.  Measurer
        P. Sicoli.  0.36m Schmidt Cassegrain + CCD.
    M50 Virtual Telescope Project, Manciano.  Observer G. Masi.  0.25-m  f/4.5
        astrograph + CCD.
    P87 Hirao Observatory, Yamaguchi.  Observer K. Yoshimoto.  0.20-m f/8 Ritchey-
        Chretien + CCD + f/5.4 focal Reducer.
    Q38 Swan Hill.  Observer M. Mattiazzo.  C11 RASA f/2.2 + Canon 6D.
    U94 iTelescope Observatory, Beryl Junction (Sato).  Observers A. Pearce, H.
        Sato.  0.25-m f/3.4 reflector + CCD T5 Beryl Junction Utah USA, 0.51-m
        f/6.8 astrograph + CCD + f/4.5 focal reducer.
    X09 Deep Random Survey, Rio Hurtado.  Observers A. Schnabel, D. Ruhela.
        Measurer S. Deen.  0.43-m reflector + CMOS.
    
    Orbital elements:
        C/2023 P1 (Nishimura)                                                       
    Epoch 2023 Sept. 13.0 TT = JDT 2460200.5                                        
    T 2023 Sept. 18.18879 TT                                Rudenko                 
    q   0.2211257            (2000.0)            P               Q                  
                       Peri.  117.17778     +0.35694964     -0.59978608             
                       Node    68.25181     -0.85465181     -0.51912711             
    e   1.0            Incl.  129.55528     +0.37703745     -0.60890369             
    From 70 observations 2023 Aug. 11-15, mean residual 0".5.                       
                                                                                    
    Ephemeris:
    Date    TT    R. A. (2000) Decl.     Delta      r    Elong.  Phase   m1    m2
    2023 07 16    06 13 44.5 +14 19 08   2.4741  1.5729    21.5    13.7  13.9
    ...
    2023 07 31    06 38 25.9 +16 31 10   2.0876  1.2924    28.7    22.2  12.7
    ...
    2023 08 08    06 55 30.6 +17 56 41   1.8570  1.1325    32.0    28.3  11.9
    ...
    2023 08 14    07 11 28.6 +19 11 26   1.6739  1.0068    33.9    34.2  11.1
    2023 08 15    07 14 30.5 +19 24 57   1.6426  0.9853    34.2    35.3  11.0
    2023 08 16    07 17 40.1 +19 38 47   1.6111  0.9636    34.4    36.4  10.9
    ...
    2023 08 22    07 40 02.4 +21 08 41   1.4188  0.8298    35.1    44.5   9.9
    ...
    2023 08 30    08 24 31.9 +23 17 53   1.1605  0.6400    33.4    60.3   8.4
    ...
    2023 09 14    11 29 58.4 +17 19 58   0.8546  0.2676    13.7   117.4   3.9
    
    M. P. C. Staff               (C) Copyright 2023 MPC           M.P.E.C. 2023-P87
    


    Read MPEC 2023-P86 Read MPEC 2023-Q01


    MPEC number:

    Enter an MPEC number in one of the following forms:

    • 1997-B01 (the full form)
    • J97B01 (the packed version of the full form)
    • B01 (the abbreviated form)